Location: Newark
(50.3874°N, 10.2208°E)
Time: 23:18:48
(UTC+00:00)

ISS - Visible Passes

Search period start: 19 September 2019 00:00
Search period end: 29 September 2019 00:00
Orbit: 411 x 421 km, 51.6° (Epoch: 20 September)

Date Brightness Start Highest point End Pass type
(mag) Time Alt. Az. Time Alt. Az. Time Alt. Az.
19 Sep -1.7 18:38:09 10° S 18:39:18 13° SSE 18:39:18 13° SSE visible
20 Sep -2.2 19:24:39 10° SW 19:26:21 25° SSW 19:26:21 25° SSW visible
21 Sep -2.8 18:36:31 10° SSW 18:39:26 29° SSE 18:40:14 25° ESE visible
21 Sep -0.9 20:12:36 10° WSW 20:13:09 14° WSW 20:13:09 14° WSW visible
22 Sep -2.2 17:48:35 10° S 17:51:06 20° SE 17:53:35 10° E visible
22 Sep -3.4 19:24:08 10° WSW 19:26:52 55° SW 19:26:52 55° SW visible
23 Sep -3.6 18:35:43 10° SW 18:38:58 55° SSE 18:40:26 28° E visible
23 Sep -1.1 20:12:23 10° W 20:13:20 18° W 20:13:20 18° W visible
24 Sep -3.1 17:47:24 10° SW 17:50:32 39° SSE 17:53:39 10° E visible
24 Sep -3.5 19:23:49 10° W 19:26:48 67° WNW 19:26:48 67° WNW visible
25 Sep -3.9 18:35:16 10° WSW 18:38:36 89° S 18:40:11 29° ENE visible
25 Sep -1.0 20:12:07 10° W 20:13:05 18° WNW 20:13:05 18° WNW visible
26 Sep -3.8 17:46:45 10° WSW 17:50:04 71° SSE 17:53:24 10° ENE visible
26 Sep -3.2 19:23:32 10° W 19:26:24 57° NW 19:26:24 57° NW visible
27 Sep -3.7 18:34:57 10° W 18:38:16 71° N 18:39:41 31° ENE visible
27 Sep -0.8 20:11:47 10° WNW 20:12:34 16° WNW 20:12:34 16° WNW visible
28 Sep -3.7 17:46:20 10° W 17:49:41 79° N 17:52:55 11° ENE visible
28 Sep -3.0 19:23:12 10° WNW 19:25:48 51° WNW 19:25:48 51° WNW visible
